SCOUT B R/B, 2206

Orbit data source: Space-Track

SCOUT B R/B, 2206 is space debris in LEO originally from a launch on Fri, 10 Jun 1966 UTC launched from the Wallops Island (WLPIS). Debris objects in space refer to the collection of defunct objects orbiting the Earth. Examples of debris include non-operational satellites, rocket bodies, and fragments generated from explosions, collisions, or faulty payload assembly.

Loading next visibility...
Identifier
2206, 1966-052B
Orbit
LEO
Country
Flag of USUS
Related business
Manufacturer
UTC
Mission
Spacecraft
Bus & Motor
FW4, Unknown motor
Mass
47 kg wet, 47 kg dry
Launch date (UTC)
1966-06-10 (60 years ago)
Launch vehicle
Unknown
Launch site
Wallops Island (WLPIS)
Object type
Payload
Rocket body
Debris
Shape & HBR
Unknown
Radar Cross Section
Medium (>0.1 m² and <1 m²)

Expand to show TLE details & history
Last TLE update: 1 day ago

TLE from 1 day ago
0 SCOUT B R/B
1 02206U 66052B   26105.31597862  .00000282  00000-0  43047-3 0  9997
2 02206  40.8567 194.7565 2212865 183.5908 174.6022 10.14621100196395
Epoch: 2026-04-15T07:35Z
TLE epoch observation values (Epoch: 2026-04-15T07:35:00.552Z)
Latitude
-0.00001°
Longitude
-122.47544°
Altitude
4,622.675 km
Speed
5.316 km/s
True Right ascension
12h 59m 01s
True Declination
0° 00' 00"
Sunlit
Object was in full shadow at epoch
Visualization orbit readout
Latitude
Unknown
Longitude
Unknown
Altitude
Unknown
Speed
Unknown
Apparent Right ascension
Unknown
Apparent Declination
Unknown
Sunlit
N/A
Visualization observer readout
Local Sidereal Time
17:30:27
Azimuth
Unknown
Elevation
Unknown
Doppler factor
Unknown
Orbital elements
Apogee altitude
4,631.542 km
Perigee altitude
641.826 km
Semi-major axis
9,014.821 km
Eccentricity
0.22129
Inclination
40.8567°
RAAN
194.7565°
Arg. of periapsis
183.5908°
True anomaly
176.46951°
Mean anomaly
174.6022°
Eccentric anomaly
175.57944°
Mean motion
2.53576 °/min
Orbital period
141.97 mins
BSTAR
0.00043047
Loading maneuver chart data...
Computing Atmospheric mass density...
Loading historical data...
Loading historical data...
Loading historical data...
Loading historical data...
Loading historical data...
Loading historical data...
Loading historical data...
Other satellites on launch #52 in the year 1966 (1966-06-10 UTC)

Documentation

Showing up to 5 results
|